ENBN Weather Reports


Display with metric or nautical units.
time (UTC)temp
F
wind
direction
speed
MPH
gust
MPH
rain 1hr
in
rain 24hr
in
rain mn
in
humidity
%
barometer
mb
20260505160307 41 240 14.0 0.0 0.00 0.00 0.00 70 1005.0
20260505153307 41 230 13.0 0.0 0.00 0.00 0.00 75 1005.0
20260505150306 37 280 15.0 0.0 0.00 0.00 0.00 80 1005.0
20260505140307 41 260 14.0 26.0 0.00 0.00 0.00 65 1004.0
20260505130307 42 240 13.0 0.0 0.00 0.00 0.00 65 1005.0
20260505123306 41 250 12.0 0.0 0.00 0.00 0.00 70 1004.0
20260505120306 42 250 12.0 0.0 0.00 0.00 0.00 60 1004.0
20260505113307 41 250 15.0 0.0 0.00 0.00 0.00 70 1004.0
20260505110307 41 250 14.0 0.0 0.00 0.00 0.00 70 1004.0
20260505100307 41 270 16.0 0.0 0.00 0.00 0.00 70 1004.0
20260505093306 41 240 10.0 0.0 0.00 0.00 0.00 65 1003.0
20260505090307 41 220 9.0 0.0 0.00 0.00 0.00 70 1003.0
20260505083306 37 250 15.0 0.0 0.00 0.00 0.00 74 1003.0
20260505080307 37 230 12.0 0.0 0.00 0.00 0.00 74 1003.0
20260505073306 37 210 9.0 0.0 0.00 0.00 0.00 80 1003.0
20260505070307 39 250 8.0 0.0 0.00 0.00 0.00 75 1003.0
20260505063306 41 110 3.0 0.0 0.00 0.00 0.00 75 1002.0
20260505060306 39 100 3.0 0.0 0.00 0.00 0.00 80 1002.0
20260505053309 35 0 0.0 0.0 0.00 0.00 0.00 86 1002.0
20260505050306 33 330 5.0 0.0 0.00 0.00 0.00 93 1002.0
20260505040306 35 190 7.0 0.0 0.00 0.00 0.00 86 1002.0
20260505033306 33 210 3.0 0.0 0.00 0.00 0.00 93 1002.0
20260505030306 33 190 3.0 0.0 0.00 0.00 0.00 93 1002.0
20260505023306 33 210 1.0 0.0 0.00 0.00 0.00 93 1002.0
20260505020306 33 350 3.0 0.0 0.00 0.00 0.00 93 1002.0
20260505013306 35 350 13.0 0.0 0.00 0.00 0.00 86 1002.0
20260505010306 37 310 8.0 0.0 0.00 0.00 0.00 74 1002.0
20260505003306 35 230 3.0 0.0 0.00 0.00 0.00 74 1002.0
20260505000306 37 270 2.0 0.0 0.00 0.00 0.00 69 1002.0
20260504233306 39 280 2.0 0.0 0.00 0.00 0.00 64 1001.0
20260504230307 39 310 3.0 0.0 0.00 0.00 0.00 64 1002.0
20260504223307 39 320 3.0 0.0 0.00 0.00 0.00 60 1002.0
20260504220327 39 320 7.0 0.0 0.00 0.00 0.00 64 1001.0
20260504213308 39 330 9.0 0.0 0.00 0.00 0.00 64 1001.0
20260504210306 39 330 9.0 0.0 0.00 0.00 0.00 75 1001.0
20260504203309 39 310 8.0 0.0 0.00 0.00 0.00 75 1001.0
20260504200311 39 350 12.0 0.0 0.00 0.00 0.00 69 1001.0
20260504193311 37 0 2.0 0.0 0.00 0.00 0.00 86 1001.0
20260504190310 37 0 2.0 0.0 0.00 0.00 0.00 86 1000.0
20260504183308 37 350 3.0 0.0 0.00 0.00 0.00 86 1000.0
20260504180307 37 20 6.0 0.0 0.00 0.00 0.00 86 1000.0
20260504173311 37 10 8.0 0.0 0.00 0.00 0.00 86 1000.0
20260504170310 39 360 9.0 0.0 0.00 0.00 0.00 80 1000.0